Theta_e
289 290 290 289 291 291 291 290 289 289 289 288 287 285 284 284 284 283 283 283 283 283 282 282 282 281 281 281 281 281 280 279 279 279 279 279 279 278 278 277 277 277 276 276 276 276 275 275 275 275 275 275 274 274 274 274 274 274 274 274 274 274
288 289 289 288 289 289 290 289 289 289 289 288 287 286 285 284 283 283 283 283 283 283 282 281 281 281 281 281 280 280 280 279 279 279 279 278 278 277 277 277 276 276 276 275 275 275 275 275 275 275 274 274 274 274 274 274 274 273 273 273 274 274
287 287 288 288 287 288 290 289 288 289 288 287 287 285 284 283 283 283 283 283 283 282 281 281 281 280 280 280 280 280 280 279 280 279 279 278 277 277 277 276 276 276 276 275 275 275 275 274 274 274 274 273 273 273 273 273 273 273 272 273 273 273
286 286 286 286 286 287 288 288 287 287 287 287 287 286 285 283 283 283 283 283 283 282 281 281 280 280 280 280 280 279 279 279 279 278 278 277 277 277 276 276 276 276 275 275 275 275 275 275 274 273 273 273 273 272 273 273 272 272 272 272 272 272
286 286 286 286 286 286 286 287 287 287 287 287 286 286 285 284 284 283 283 283 282 281 281 280 280 280 279 279 279 279 279 278 278 278 277 277 276 276 276 276 275 275 275 274 274 274 274 273 273 272 272 272 272 272 272 272 272 272 271 271 271 271
285 285 285 285 285 285 286 286 287 287 287 287 286 285 285 284 284 283 283 282 282 281 280 280 280 279 279 279 278 278 278 277 277 277 277 276 276 276 275 275 275 275 274 274 273 273 273 272 272 272 272 272 272 272 272 272 272 271 271 271 271 271
284 285 285 285 286 286 285 286 286 286 287 287 286 286 285 285 284 283 282 282 281 281 280 279 279 279 279 278 278 278 277 277 277 276 276 276 276 276 276 276 275 275 274 274 273 273 272 272 272 272 272 272 272 272 272 272 271 271 271 271 271 273
284 285 285 286 286 286 285 285 285 286 287 286 286 285 285 284 283 283 282 282 281 280 280 279 279 279 279 278 278 277 277 276 276 276 277 277 276 276 276 276 275 275 275 274 273 273 272 272 272 272 272 271 272 272 272 271 271 271 271 270 270 270
284 284 285 286 286 286 285 285 285 285 286 286 286 285 285 284 283 282 282 281 281 280 280 279 279 279 278 278 277 277 277 276 276 276 276 277 276 276 276 275 274 274 274 274 273 272 272 272 271 271 272 272 272 272 272 271 271 271 271 270 270 269
284 284 284 285 286 286 285 285 285 285 285 285 285 285 284 284 283 282 282 281 281 280 280 280 279 279 278 278 277 277 277 277 276 276 277 277 276 276 276 275 275 274 274 274 273 272 271 271 271 272 272 272 271 271 271 271 271 271 270 270 269 269
284 284 284 285 285 285 285 285 284 284 284 284 284 284 284 283 283 282 281 281 281 281 281 280 279 279 278 277 277 277 277 277 277 277 276 276 276 276 276 276 275 274 273 273 273 272 272 272 271 272 272 271 271 272 271 271 270 270 270 269 269 269
284 284 284 284 285 285 285 285 284 284 284 284 284 284 284 283 282 282 281 281 281 281 280 280 279 278 278 277 277 277 277 277 277 276 276 276 276 275 275 275 274 274 273 272 272 272 271 271 271 273 276 275 272 272 271 271 270 270 270 269 269 269
284 284 284 284 284 285 285 285 285 285 285 284 284 284 284 283 282 282 282 281 281 280 279 279 279 279 278 278 278 278 277 277 276 276 276 276 275 274 274 274 274 273 272 272 271 271 271 271 271 276 279 278 277 272 271 271 270 270 270 270 270 269
284 283 284 284 284 285 285 285 285 284 284 284 284 284 283 283 283 282 282 281 281 280 280 279 279 278 278 278 278 278 277 277 276 275 275 275 274 274 274 273 273 273 272 272 272 272 271 271 274 279 280 280 279 276 273 271 270 271 271 271 270 270
285 284 284 285 285 285 285 285 284 284 284 284 283 283 282 282 282 282 281 281 281 280 280 279 279 278 278 278 278 277 277 276 276 275 275 274 274 273 273 274 273 272 272 272 272 271 272 271 277 281 281 281 280 278 274 271 271 271 271 271 271 270
285 285 285 285 286 286 286 285 285 284 284 283 283 283 282 282 282 282 282 281 281 280 280 279 279 278 278 278 277 277 276 275 275 275 275 274 274 273 273 273 273 273 272 272 272 271 271 270 276 281 282 282 281 281 277 273 272 272 271 271 271 271
285 284 284 284 285 285 285 285 285 284 283 283 283 283 283 283 283 282 282 281 280 280 280 279 278 278 278 277 277 276 276 275 275 275 275 274 274 273 273 273 273 272 272 272 272 271 271 270 277 281 282 282 282 282 280 274 274 272 272 271 271 271
285 285 285 286 285 285 286 285 285 284 283 283 283 283 283 282 282 281 281 281 281 280 279 279 278 278 277 277 276 276 276 275 275 275 274 274 274 274 274 273 273 272 272 272 271 271 270 270 278 281 282 282 282 283 278 274 274 272 272 271 271 271
286 285 285 285 285 285 285 285 285 284 283 282 283 282 282 282 282 282 282 281 281 280 279 279 278 278 277 277 276 276 276 275 275 275 274 274 274 273 273 273 272 272 272 271 271 270 271 270 276 280 281 282 282 281 275 274 273 272 271 270 270 269
284 284 285 284 285 285 285 285 285 284 283 283 283 283 282 282 282 283 282 282 281 281 279 279 278 278 277 276 276 276 276 276 276 275 275 274 274 273 273 273 272 272 272 271 270 271 271 270 273 280 281 281 282 280 273 273 272 272 270 269 269 268
285 284 285 285 284 285 285 285 285 284 283 283 283 283 282 282 283 283 283 282 282 281 280 279 278 278 277 277 277 277 276 276 276 276 274 274 275 274 273 272 272 271 271 270 270 272 271 270 272 279 280 281 281 279 273 273 271 270 269 268 267 268
284 283 283 284 284 285 285 285 285 284 284 283 283 283 283 283 284 284 284 283 282 281 280 279 279 278 278 277 277 277 277 277 276 275 274 274 274 273 272 271 271 270 270 269 268 269 270 269 268 273 280 280 281 281 274 273 270 269 268 267 266 265
285 284 284 285 284 284 285 285 285 284 284 284 283 283 284 285 284 284 284 283 282 281 280 280 279 279 279 278 278 278 276 276 275 274 273 272 271 270 270 270 269 269 269 268 267 267 267 267 266 268 279 280 281 281 277 272 271 270 268 267 267 266
285 285 285 284 284 284 285 285 284 284 284 284 283 284 285 284 284 283 283 282 281 281 280 280 279 279 278 277 276 275 274 273 273 272 271 270 270 270 269 268 268 268 268 267 266 265 264 266 268 264 274 279 280 281 280 273 272 271 268 267 266 265
285 284 284 283 284 284 284 285 284 284 283 283 284 283 283 283 283 282 282 281 281 280 279 279 278 278 277 275 275 274 274 272 271 270 270 269 269 269 268 268 267 267 267 266 265 264 263 263 264 270 267 276 280 280 281 279 274 275 270 267 266 266
282 281 280 281 283 283 284 284 283 283 282 283 282 281 281 281 281 281 281 280 279 278 278 277 277 276 276 275 274 274 273 271 271 269 269 269 269 268 268 268 266 265 265 266 265 264 263 263 262 267 271 270 277 279 280 280 279 277 272 269 268 268
280 279 278 278 280 281 282 283 283 281 281 281 280 280 280 280 279 280 279 279 278 277 277 276 276 275 275 274 274 273 273 270 269 269 267 267 268 267 267 267 265 265 265 265 265 265 264 263 263 262 266 272 273 277 279 279 280 280 278 273 271 270
277 278 277 275 276 278 280 281 282 281 281 278 279 279 279 278 278 278 278 278 277 277 276 275 275 274 274 273 274 274 273 271 269 270 268 267 267 267 267 268 265 265 265 265 266 266 266 264 262 262 262 267 271 273 276 278 279 279 279 277 272 273
277 276 276 276 274 276 277 278 278 278 277 277 278 278 278 278 278 278 277 277 276 275 275 275 274 273 272 271 271 271 271 271 269 269 268 267 267 267 267 267 266 265 265 265 266 266 264 263 263 262 261 261 263 266 270 273 275 278 278 277 276 275
276 275 275 276 275 274 275 276 276 274 276 275 276 276 276 277 277 277 276 275 275 274 273 274 270 271 271 270 270 270 269 269 269 269 269 267 268 267 267 267 267 266 266 266 267 266 262 263 263 262 262 262 262 264 266 269 270 272 274 274 275 275
275 275 276 276 274 274 274 273 272 272 274 275 274 275 276 276 274 275 273 273 272 272 271 272 271 271 271 269 269 270 271 270 269 270 270 270 270 270 270 269 269 268 269 268 268 266 265 264 264 265 268 266 269 266 265 266 268 269 271 274 275 271
274 274 274 274 272 272 272 271 270 269 271 272 272 274 275 273 273 271 271 271 271 270 269 269 269 269 269 268 268 268 267 268 272 271 270 270 272 274 275 275 270 270 268 268 268 268 268 268 269 271 272 273 273 273 273 271 272 273 271 273 277 273
272 272 272 272 271 272 271 270 268 268 267 269 270 273 273 273 272 271 269 268 270 269 269 269 268 267 268 267 267 266 267 265 267 275 276 275 273 274 276 277 277 277 275 269 267 268 274 275 274 274 274 275 275 275 275 275 274 275 275 275 274 272
272 273 274 271 270 270 269 268 266 266 265 265 267 268 272 272 273 272 271 269 269 268 267 267 266 266 265 265 264 265 265 266 266 266 272 276 276 276 275 276 277 277 277 277 273 267 264 272 275 276 276 276 277 277 276 276 276 276 276 276 276 270
272 271 269 268 267 267 266 267 265 263 263 264 264 265 269 269 270 270 267 265 265 265 266 265 265 265 265 265 264 263 264 265 265 267 267 268 275 277 277 277 277 277 277 278 278 277 273 271 273 275 276 277 277 277 277 277 277 277 277 277 273 270
268 267 266 265 265 266 264 265 265 263 264 263 265 266 267 267 268 266 266 266 266 265 265 265 265 265 265 265 264 264 264 264 265 265 265 263 261 266 272 276 277 277 277 278 278 278 278 277 275 275 276 277 277 278 278 278 276 278 278 276 271 271
268 266 266 267 265 265 265 266 265 263 264 265 265 266 266 266 267 265 265 265 265 265 265 265 265 264 264 263 263 263 263 264 261 262 262 263 264 265 265 266 269 275 277 275 276 278 278 278 277 276 276 277 277 278 278 278 274 273 274 274 273 271
267 266 265 265 265 264 265 266 264 261 262 263 264 265 266 266 265 265 265 263 265 264 264 263 264 263 263 262 262 262 261 261 261 263 262 262 263 263 264 264 265 267 273 277 277 277 277 278 278 277 277 277 278 278 278 273 272 271 272 272 272 271
Wind_Speed
12 12 12 10 10 12 12 11 11 10 10 12 13 14 13 13 10 10 10 11 9 9 10 10 9 8 9 8 8 9 10 10 8 9 8 8 8 8 9 9 9 8 7 7 7 6 7 6 7 7 7 6 8 6 6 5 5 6 6 3 4 3
11 12 13 13 12 12 11 11 10 12 12 12 11 10 11 10 11 11 12 10 10 9 8 7 7 7 9 9 10 10 10 10 10 9 9 10 8 8 9 9 9 9 9 7 8 7 6 7 6 7 7 6 6 6 6 5 6 6 6 4 3 3
10 9 9 9 8 9 11 12 12 12 11 12 12 14 12 12 11 11 11 11 9 10 11 10 9 9 8 9 8 9 9 8 8 9 8 8 8 9 9 10 10 9 9 9 8 8 7 8 7 6 6 6 6 5 6 5 6 7 5 5 4 3
9 8 7 6 8 10 12 11 11 12 13 13 12 12 12 13 11 11 11 10 10 11 11 10 8 8 8 9 8 8 8 8 8 8 8 9 8 8 10 10 9 9 9 8 7 7 7 7 7 6 6 6 7 6 4 6 6 6 5 4 4 3
10 11 12 13 13 12 12 11 13 13 13 13 13 13 13 12 12 10 11 11 11 11 9 10 10 9 10 10 8 8 8 7 6 6 8 7 7 4 6 8 8 9 9 8 8 8 7 7 7 6 5 4 6 7 5 5 6 6 6 5 4 3
9 10 12 12 12 12 13 12 11 11 12 13 12 14 14 12 11 11 11 10 11 11 10 11 10 11 10 10 8 9 7 6 6 6 6 6 6 7 5 4 6 7 8 9 8 8 8 7 7 6 5 5 6 7 7 5 5 5 5 5 4 3
12 13 13 13 13 11 12 12 12 12 12 12 13 13 13 12 11 11 11 12 13 11 12 11 11 12 12 11 9 9 8 7 7 6 7 8 8 7 8 7 6 7 8 8 9 9 8 8 9 8 7 6 4 6 6 6 5 5 5 5 4 4
12 12 13 12 13 13 12 12 12 11 12 13 11 13 12 12 10 11 11 11 13 12 13 12 12 13 13 12 10 11 9 8 7 7 7 8 10 8 8 9 7 7 7 7 8 8 8 8 8 9 8 7 6 6 6 6 5 5 5 5 4 3
16 14 13 13 13 13 13 13 12 12 12 12 11 11 13 11 10 11 11 11 12 12 13 13 13 12 12 11 11 10 9 9 8 7 8 7 8 9 9 8 7 5 6 7 7 7 7 8 8 8 7 8 6 6 6 6 5 5 5 4 4 3
12 14 15 13 13 12 12 12 13 12 12 13 11 11 11 10 12 11 12 12 12 12 13 12 10 11 10 9 9 10 9 9 8 8 7 7 8 9 9 10 9 7 6 6 6 6 6 7 6 5 5 6 6 6 6 6 6 5 4 4 3 2
14 13 12 13 12 14 14 12 12 10 10 10 11 11 12 11 12 12 11 11 12 12 10 9 8 8 8 9 9 10 10 10 9 8 8 7 7 7 8 7 8 8 7 6 6 6 5 5 5 5 6 7 7 6 6 5 5 5 5 3 2 1
11 13 13 12 15 14 14 14 14 14 14 13 12 13 12 12 13 13 12 13 12 9 8 8 7 8 9 10 11 10 10 10 10 9 9 9 7 7 7 7 7 7 8 8 5 5 5 5 4 7 12 10 9 7 6 6 5 4 3 3 3 2
11 11 13 15 15 15 15 14 13 13 13 12 13 14 13 13 13 13 13 13 10 9 8 8 9 9 10 10 10 8 10 10 8 8 7 6 6 7 7 7 8 7 7 8 10 9 6 6 6 13 13 13 13 8 7 6 5 4 3 3 4 4
13 14 15 15 14 14 13 13 12 11 13 12 13 12 11 12 13 14 13 11 10 11 12 11 11 10 10 10 9 9 8 7 7 7 7 7 7 6 5 7 7 7 7 7 7 7 6 6 9 15 14 14 14 11 8 6 4 3 4 4 5 5
16 17 16 15 16 16 15 11 10 12 11 11 10 9 11 12 12 11 11 11 11 11 11 11 11 11 10 9 8 8 8 8 8 7 7 8 7 6 7 9 8 8 7 7 8 8 7 7 13 16 15 14 14 14 10 5 5 4 4 5 5 4
11 13 14 13 12 11 10 11 12 10 8 8 8 11 10 11 11 12 12 11 11 11 11 11 10 9 9 8 8 8 9 9 10 8 6 6 6 7 6 6 7 6 7 8 8 7 6 8 12 16 15 15 15 14 11 6 6 5 6 6 6 5
10 8 8 10 11 11 11 10 10 9 9 9 10 10 10 11 11 11 10 11 11 11 10 11 11 11 9 9 9 9 9 10 8 8 8 8 9 9 10 9 10 9 8 7 7 7 8 8 14 16 15 15 16 15 12 7 6 6 6 6 6 6
12 14 14 10 11 12 12 13 12 12 12 11 11 10 10 10 10 9 9 10 9 10 11 11 10 10 10 10 10 10 10 10 11 11 8 7 7 5 4 4 5 8 8 8 8 7 8 8 16 16 16 16 15 16 7 7 6 6 6 6 7 6
8 8 8 11 12 13 13 12 12 12 11 12 11 12 11 12 12 11 12 12 12 12 11 11 11 11 11 10 10 11 11 11 10 9 7 9 8 9 9 9 9 8 9 10 10 10 9 8 14 17 16 16 16 12 6 7 6 6 6 6 6 5
5 6 10 11 12 12 11 11 12 12 12 12 12 13 13 13 14 13 13 14 12 12 11 12 11 11 11 11 13 13 12 10 8 9 9 11 11 11 11 9 8 8 8 10 11 11 11 10 12 17 16 16 17 10 7 6 6 6 6 6 6 4
9 8 8 10 12 11 12 13 14 13 13 12 12 12 13 14 13 14 15 13 11 11 11 10 11 12 13 13 13 12 13 12 12 9 8 9 9 10 8 8 8 8 7 7 8 7 9 7 10 16 17 17 17 11 7 7 6 7 7 5 6 5
9 8 11 13 12 11 13 12 12 12 12 12 11 12 13 15 16 12 8 9 11 10 11 11 13 13 14 14 12 10 10 8 7 9 11 9 8 8 7 7 7 9 8 6 6 7 8 6 7 10 18 18 18 17 9 7 8 9 8 6 6 6
11 12 12 9 10 11 11 12 12 12 11 11 11 14 16 11 7 8 10 9 10 11 13 12 13 14 13 12 12 11 9 8 9 8 8 9 7 6 6 8 7 7 7 5 6 5 6 5 6 9 16 17 18 18 15 8 9 8 7 7 7 6
6 6 6 7 11 12 11 12 13 12 11 11 15 15 5 7 9 9 9 11 11 11 12 12 10 11 10 8 8 9 8 6 6 7 7 6 6 7 8 6 6 7 7 5 5 6 6 5 7 6 12 17 18 19 20 11 10 9 7 7 7 6
6 6 7 7 8 9 9 11 11 10 10 13 12 6 8 8 9 10 10 10 10 10 11 10 11 10 8 9 10 11 10 8 8 7 7 7 7 8 8 8 7 7 7 6 6 5 6 6 6 11 9 14 18 19 20 18 11 17 9 9 9 9
5 6 4 5 7 8 9 11 11 9 10 11 5 7 6 7 7 8 9 8 9 8 8 9 9 9 8 9 9 9 9 8 8 7 8 8 8 8 8 8 7 6 7 9 8 7 7 6 6 9 14 11 16 18 19 21 19 18 10 9 8 6
8 7 5 4 5 6 7 7 10 9 10 5 7 7 8 8 8 8 8 8 8 9 8 8 8 9 8 8 10 10 9 8 8 8 6 8 8 8 9 8 7 9 9 8 9 9 7 7 7 7 11 16 15 17 18 20 21 20 19 10 8 8
6 7 7 4 4 6 6 7 9 12 8 5 6 7 8 8 9 9 9 8 8 8 8 9 7 7 7 8 8 10 9 11 10 10 9 8 9 9 10 9 8 9 9 10 10 9 9 7 7 8 7 8 10 12 17 20 21 21 21 17 9 15
8 7 7 7 4 5 5 5 4 5 6 7 7 8 9 9 10 9 8 8 8 7 8 9 8 7 7 7 7 7 7 8 8 8 9 9 9 9 9 9 9 9 10 11 12 9 6 7 8 8 6 7 7 8 10 12 13 18 19 14 10 12
9 8 7 8 6 5 5 5 5 6 7 6 7 8 9 9 9 9 9 9 7 7 8 8 9 10 8 8 9 9 7 7 9 10 12 12 13 12 11 11 11 12 12 12 11 8 7 8 8 9 9 9 10 11 10 9 8 9 9 10 9 7
8 7 7 7 5 5 5 5 5 5 7 7 7 8 9 8 6 6 6 6 6 7 7 7 8 9 9 8 8 8 10 12 12 12 11 10 10 12 14 13 13 12 11 11 11 10 10 9 11 15 12 14 14 12 11 11 11 10 9 10 10 5
6 6 5 5 4 5 5 5 4 3 3 5 6 7 8 7 7 6 6 7 7 7 7 7 7 7 8 8 9 8 7 6 8 9 9 9 10 15 14 10 11 9 7 9 10 9 13 14 10 3 13 19 18 19 19 15 13 13 10 11 17 9
4 4 5 4 4 4 4 4 4 4 3 4 5 6 8 8 8 6 6 7 8 9 9 8 8 7 7 7 7 7 8 7 6 12 16 12 9 13 17 19 18 13 11 10 9 8 15 15 9 9 14 18 20 20 20 20 19 19 18 18 11 10
5 6 6 4 4 5 4 4 3 4 4 4 4 5 7 8 9 9 9 8 5 7 6 6 5 6 6 6 6 7 7 7 8 8 11 17 16 15 15 16 17 17 17 16 13 8 7 13 17 16 14 16 19 21 21 21 21 21 20 20 20 10
4 3 4 4 4 4 4 4 3 3 4 4 4 5 6 6 5 5 3 3 4 4 5 5 6 6 6 7 8 7 7 8 8 10 7 4 13 17 17 18 18 19 19 19 21 19 14 13 14 17 18 17 18 20 20 21 22 21 21 20 15 11
4 4 4 4 4 4 4 3 1 3 4 5 5 5 5 5 5 4 6 6 7 7 6 7 6 7 7 6 5 6 6 7 6 6 3 1 2 5 11 16 20 20 19 21 22 21 20 18 17 18 19 19 19 20 20 20 16 21 23 20 12 11
4 4 4 5 4 3 3 1 2 5 5 5 6 6 5 5 5 5 5 8 7 6 6 6 5 5 5 5 6 6 6 6 4 4 5 6 7 8 8 6 7 13 19 16 14 18 20 20 19 18 18 20 19 20 20 20 12 12 12 14 12 10
4 3 3 3 3 3 2 1 0 2 4 4 5 5 5 5 4 4 3 3 5 5 4 5 4 5 5 5 5 4 4 4 4 6 6 5 5 6 7 7 5 4 8 18 20 19 18 20 20 18 18 18 20 20 20 12 10 9 10 10 11 10
Wind_Direction
186 183 182 181 179 176 174 170 169 168 170 169 170 169 170 168 168 162 161 164 163 168 171 169 164 162 154 151 149 148 147 148 151 154 151 145 152 147 143 135 128 125 120 122 125 127 125 119 114 113 109 110 112 110 113 114 112 108 103 94 98 107
185 183 180 179 177 174 173 172 171 172 170 167 170 168 165 166 166 166 165 168 163 165 160 165 163 156 156 157 155 156 156 156 157 154 158 162 154 151 143 136 135 135 133 136 137 134 131 122 116 115 113 110 113 123 119 125 119 109 107 100 90 101
182 184 183 177 171 173 172 175 178 174 169 172 172 171 171 171 171 169 171 162 167 163 167 166 163 160 156 156 161 154 157 157 158 164 161 149 159 152 145 142 141 141 141 142 142 139 135 127 123 118 119 118 120 116 123 125 117 112 110 110 97 93
177 177 173 172 174 180 180 177 173 177 179 177 171 171 174 173 174 174 166 166 163 172 167 167 162 156 155 159 158 157 159 162 165 164 158 162 159 156 148 147 145 141 141 137 132 129 123 121 124 122 118 125 124 122 123 122 118 115 119 112 110 102
179 181 181 181 184 183 180 179 184 183 180 174 176 174 180 176 173 172 167 166 167 171 169 163 162 159 161 159 159 161 163 163 163 164 162 154 150 142 142 145 142 141 136 132 133 131 128 130 125 119 118 132 135 131 126 126 128 132 133 125 122 120
174 177 187 185 187 187 187 186 184 183 183 180 174 179 174 173 174 170 167 166 168 168 166 170 162 161 163 163 162 163 163 160 163 164 150 143 137 139 126 123 131 132 135 135 138 137 135 131 126 126 136 147 144 135 135 135 132 133 132 129 127 123
185 191 188 189 190 188 187 189 188 185 186 180 179 178 174 172 171 171 171 168 168 170 172 171 168 167 167 164 160 163 159 162 164 162 153 148 148 145 140 136 138 142 147 150 150 145 144 143 140 140 144 144 140 138 139 140 136 131 127 125 124 123
190 194 193 190 191 188 186 190 190 189 188 186 179 173 172 175 171 173 170 172 170 173 177 175 172 174 170 165 163 163 162 163 168 162 158 159 151 148 153 148 154 159 157 154 150 145 143 142 143 136 141 143 140 142 140 135 133 129 120 115 116 124
200 198 194 194 190 188 188 188 189 190 188 183 181 178 170 170 170 171 173 176 176 176 182 179 179 173 170 168 163 158 160 166 167 163 162 164 160 157 155 157 151 160 157 146 121 147 150 145 146 141 140 139 145 149 141 133 128 121 115 118 127 129
195 198 198 192 194 189 188 191 190 187 187 183 178 174 171 168 170 174 178 178 181 183 185 183 175 171 168 160 156 160 161 161 162 163 163 164 165 165 163 162 160 155 150 145 145 149 149 144 143 131 131 140 150 146 135 135 134 126 117 115 117 135
202 196 195 197 189 192 191 186 187 185 185 182 178 173 175 167 169 175 177 179 185 189 183 173 170 164 158 156 157 164 166 166 164 161 162 170 171 168 165 154 146 143 140 138 122 137 137 134 146 153 158 151 152 141 135 135 130 128 126 119 132 150
197 196 193 195 197 195 191 189 188 187 184 181 178 177 173 165 176 174 177 184 187 178 171 170 168 165 160 162 169 172 169 167 167 166 168 173 170 160 152 144 140 144 141 142 125 128 140 157 165 181 174 166 149 141 134 123 123 126 130 145 167 190
198 193 194 198 198 197 197 197 191 185 182 179 180 181 174 169 171 178 181 184 176 164 159 166 174 169 172 174 170 171 172 169 166 166 167 163 159 155 150 147 148 152 152 146 138 155 171 171 174 187 176 163 148 137 132 129 130 127 142 178 187 194
196 195 198 197 197 195 196 196 191 185 188 183 183 177 167 173 177 180 180 175 167 166 170 175 174 175 178 172 176 171 169 164 163 167 165 160 156 156 150 152 156 154 159 163 165 172 179 160 193 189 179 165 152 139 133 129 137 152 180 195 205 205
199 197 196 194 195 195 194 180 175 190 187 182 176 160 171 179 178 175 176 176 174 173 173 172 172 176 177 177 169 165 164 166 166 165 167 173 165 151 163 167 160 170 172 173 172 181 181 181 198 192 182 169 159 150 136 141 143 168 197 202 206 208
200 201 198 194 191 187 176 177 180 179 171 166 159 169 175 175 180 180 179 173 174 172 174 174 171 174 174 168 168 168 170 168 177 173 166 156 156 169 170 167 168 171 182 185 183 181 186 191 205 194 183 175 167 162 150 150 159 178 198 208 210 214
192 183 181 186 178 172 168 177 170 154 154 159 166 172 172 183 180 182 177 176 175 173 173 172 173 174 167 170 174 175 177 177 171 170 172 171 176 176 179 179 181 190 186 187 183 187 192 198 205 193 187 182 179 179 167 156 161 174 200 211 215 215
188 187 189 172 163 172 175 175 164 160 165 160 166 168 175 177 181 179 174 178 176 174 176 176 174 170 170 173 176 180 182 180 181 177 171 169 179 186 171 187 192 191 190 189 188 188 200 202 203 195 191 186 186 187 162 158 170 173 195 207 215 214
187 181 160 165 172 171 179 170 163 159 155 161 167 168 174 176 183 184 183 185 183 182 176 174 172 175 173 173 177 186 186 185 184 180 171 176 182 183 190 195 196 194 192 193 192 197 203 197 203 196 192 187 186 184 144 166 167 182 194 201 209 217
155 161 162 165 173 175 165 161 160 158 161 167 169 172 179 183 189 186 187 189 184 179 173 174 175 175 175 176 187 190 193 191 188 184 176 182 182 193 200 193 193 199 199 197 201 201 201 197 200 196 191 189 189 179 161 168 174 189 200 206 217 212
157 156 155 159 171 173 163 160 160 161 169 172 175 178 182 191 192 190 192 186 174 173 171 172 176 180 182 188 192 191 191 190 189 182 178 196 195 200 190 189 196 200 202 205 207 215 220 199 196 196 192 190 191 180 156 170 175 193 199 191 214 221
130 149 164 176 176 157 157 157 161 168 170 177 171 181 192 197 198 190 173 171 173 171 175 178 182 186 186 191 189 190 196 185 175 185 190 195 196 193 186 190 198 200 207 196 200 211 220 212 202 205 194 192 192 188 164 175 168 202 203 199 202 209
162 171 175 165 151 153 155 157 161 174 176 171 178 196 204 192 162 165 176 169 171 177 182 184 186 188 191 188 188 186 184 184 188 179 183 190 188 180 185 192 200 205 211 193 202 205 224 221 211 220 203 196 195 197 177 186 194 200 193 195 201 205
134 127 125 144 151 153 158 161 170 174 172 176 198 206 154 142 164 165 169 178 181 182 183 185 187 188 186 176 164 171 182 177 169 177 179 175 179 190 198 193 197 208 215 200 200 208 218 225 222 217 220 202 200 202 197 177 200 190 184 188 205 208
131 135 138 138 147 150 157 159 167 173 175 195 203 145 148 160 163 169 172 175 177 180 181 181 179 178 173 174 177 176 182 172 172 174 168 173 183 194 201 202 200 205 218 217 217 215 217 216 228 218 226 220 208 207 208 201 186 202 188 194 206 208
112 113 119 139 148 157 160 167 170 173 186 203 134 146 145 151 155 157 166 173 175 171 175 177 176 177 175 174 171 176 173 174 175 169 178 179 184 193 204 211 201 207 220 223 228 222 219 215 205 231 223 225 222 215 213 215 203 201 195 192 211 199
132 123 111 117 143 147 157 162 165 169 192 180 141 151 151 148 151 157 171 172 171 172 171 168 174 177 176 172 170 175 177 173 166 177 185 178 190 195 206 213 194 210 219 222 229 227 217 210 212 216 231 225 223 223 220 218 219 215 207 202 201 198
115 121 126 112 135 149 159 170 164 179 183 140 147 147 148 148 152 166 172 172 171 173 164 169 175 175 173 172 180 186 184 179 181 187 183 186 198 199 206 209 198 213 216 225 230 228 218 203 206 219 216 231 227 227 225 223 223 222 219 213 185 195
127 135 138 145 165 157 163 162 163 148 135 150 147 149 149 156 161 165 166 170 171 164 168 171 174 172 171 177 179 183 180 178 182 185 185 191 196 202 208 210 205 213 216 225 230 225 209 209 217 214 207 209 221 228 225 226 227 224 223 226 207 199
138 143 149 153 171 161 158 156 152 143 140 143 148 148 148 155 165 166 174 172 167 169 172 179 171 171 178 185 181 183 187 190 186 190 197 193 196 197 208 206 211 214 215 223 225 217 214 226 221 216 205 202 210 216 213 215 215 210 210 211 210 202
141 154 148 158 162 159 154 151 144 150 149 151 148 147 149 156 161 157 157 157 157 172 175 176 174 183 182 186 196 207 197 188 191 202 216 218 200 199 200 202 215 218 218 215 216 205 219 226 225 226 200 210 208 204 195 200 205 203 205 205 192 154
138 147 151 152 152 149 153 152 147 131 125 136 144 145 146 146 146 149 163 167 173 170 170 180 184 185 185 186 195 201 234 251 223 217 211 219 208 220 228 216 219 218 200 216 228 204 212 222 234 191 200 217 221 220 216 214 208 205 198 196 201 183
127 126 144 157 147 151 150 149 145 130 119 137 150 152 146 148 154 166 167 170 186 184 184 179 184 188 191 192 189 196 208 231 249 234 233 231 216 219 225 230 235 231 209 199 233 228 235 249 246 205 204 212 217 217 214 211 207 206 202 199 198 205
159 168 176 162 147 149 151 148 151 141 137 132 149 146 152 161 162 177 190 192 184 177 181 183 176 171 180 193 189 193 197 207 228 256 238 233 231 227 227 233 237 239 238 226 220 210 238 239 239 236 227 218 216 214 212 209 206 205 202 201 198 208
156 136 136 136 133 144 155 154 160 141 136 143 147 144 153 172 172 172 150 146 144 153 160 165 172 182 185 191 193 200 197 203 215 230 250 236 236 237 239 238 238 238 240 241 242 235 222 216 222 232 232 226 220 215 211 209 206 203 201 197 204 208
124 124 120 128 143 151 153 132 164 165 166 154 158 156 167 171 178 161 162 166 169 162 178 181 189 187 199 196 193 199 198 219 221 239 261 233 292 269 250 244 241 240 240 242 242 241 241 236 227 226 228 226 221 215 213 209 208 207 204 201 203 203
126 126 134 137 137 123 112 124 209 192 177 169 162 163 167 175 177 177 160 159 160 176 183 186 184 191 185 182 193 199 205 215 216 217 232 230 227 235 239 245 241 238 236 238 242 243 243 241 238 231 229 227 222 216 210 204 205 208 210 211 211 210
116 111 110 113 114 116 127 239 268 191 175 159 159 166 177 177 173 171 164 155 164 159 167 168 179 174 185 193 202 193 202 199 197 212 230 229 237 243 254 265 237 235 243 241 241 239 239 241 237 231 229 227 222 217 206 203 208 203 211 211 212 209